Location: Bernâtre
(50.1974°N, 2.0915°E)
Time: 23:28:37
(UTC+00:00)

Daily predictions for brighter satellites

Satellite Brightness Start Highest point End
(mag) Time Altitude Azimuth Time Altitude Azimuth Time Altitude Azimuth
Cosmos 2279 Rocket 4.4 16:18:23 10° SSE 16:24:13 45° E 16:30:05 10° NNE
Cosmos 1570 Rocket 4.0 16:20:34 10° NNW 16:25:57 73° ENE 16:31:15 10° SSE
Cosmos 1092 Rocket 4.1 16:20:37 10° N 16:26:49 90° WSW 16:32:57 10° S
Cosmos 836 Rocket 4.5 16:23:59 10° NNW 16:29:14 70° ENE 16:34:29 10° SSE
SMAP 3.5 16:26:42 10° SE 16:31:02 40° ENE 16:35:24 10° N
Cosmos 1656 4.1 16:26:12 10° S 16:31:30 45° ESE 16:36:53 10° NE
NOSS 2-2 (C) 2.6 16:31:43 10° SW 16:34:57 87° SE 16:37:57 10° NE
Cosmos 1867 4.0 16:29:51 10° NNW 16:35:03 42° NE 16:40:12 10° ESE
YAOGAN 1 4.3 16:33:37 10° ENE 16:35:17 12° NE 16:36:57 10° NNE
Cosmos 2228 3.0 16:31:08 10° S 16:35:20 70° E 16:39:35 10° NNE
Landsat 7 4.3 16:32:19 10° SE 16:36:32 36° ENE 16:40:47 10° N
SAR-Lupe-4 4.5 16:33:48 10° SE 16:36:50 27° ENE 16:39:52 10° N
Cosmos 2297 Rocket 2.2 16:33:42 10° NNW 16:39:20 61° NE 16:44:56 10° SE
USA 290 2.7 16:36:27 10° N 16:39:33 38° ENE 16:42:36 10° SE
USA 215 3.7 16:35:54 10° ENE 16:42:11 51° N 16:48:28 10° WNW
Cosmos 773 Rocket 3.9 16:37:33 10° NNW 16:42:46 73° ENE 16:48:00 10° SSE
Cosmos 1782 2.8 16:42:20 10° SSE 16:45:48 46° E 16:49:15 10° NNE
ATLAS CENTAUR R/B 0.7 16:43:03 10° NW 16:46:19 87° SW 16:49:29 10° SE
CZ-4C R/B 2.9 16:40:24 10° NW 16:46:59 64° NE 16:55:18 10° ESE
Cosmos 1607 3.9 16:42:11 10° NW 16:48:25 72° NE 16:54:42 10° SE
Cosmos 1733 0.8 16:47:55 10° N 16:49:30 58° ENE 16:51:05 10° SSE
CZ-2D R/B 3.4 16:49:28 10° SE 16:52:18 32° ENE 16:55:10 10° N
Lacrosse 4 Rocket 2.6 16:51:03 10° WSW 16:54:49 35° NW 16:58:32 10° NNE
IRS-P3 4.5 16:50:28 10° SE 16:55:25 41° ENE 17:00:23 10° N
Cosmos 2219 4.4 16:51:11 10° NNW 16:55:39 23° NE 16:59:37 12° E
Cosmos 1825 Rocket 4.3 16:52:36 10° N 16:56:24 28° ENE 17:00:10 10° SE
ARIANE 5 R/B 2.6 16:52:09 10° SE 16:57:05 56° ENE 17:02:06 10° N
Iridium 51 4.2 16:54:28 10° SSW 16:57:34 61° W 17:00:45 10° N
Cosmos 1758 Rocket 3.5 16:54:29 10° N 16:58:49 85° E 17:03:06 10° S
Cosmos 1315 Rocket 3.6 16:55:09 10° SSW 16:58:53 49° WNW 17:02:38 10° N
Cosmos 2266 Rocket 4.1 16:52:50 10° N 16:58:53 54° ENE 17:04:49 10° SSE
Cosmos 2098 Rocket 3.1 16:58:11 10° S 17:02:12 62° E 17:06:58 10° NNE
Cosmos 2208 Rocket 4.1 16:57:17 10° NNW 17:02:28 80° WSW 17:07:38 10° SSE
Cosmos 2151 2.9 17:00:03 10° N 17:04:10 59° ENE 17:08:16 10° SSE
Cosmos 1743 2.1 17:01:36 10° N 17:04:52 73° ENE 17:08:06 10° SSE
Cosmos 1980 Rocket 3.7 17:03:58 10° SE 17:07:03 15° E 17:08:01 14° E
SPOT 1/Viking Rocket 4.1 17:02:26 10° SE 17:07:08 36° ENE 17:11:51 10° N
Cosmos 1844 Rocket 4.4 17:06:54 10° N 17:09:43 14° NNE 17:10:59 13° NE
SL-16 R/B 2.9 17:09:34 10° NNE 17:15:47 69° WNW 17:21:55 10° SSW
Cosmos 2263 Rocket 2.7 17:12:21 10° NNW 17:17:35 36° NE 17:22:48 10° ESE
NOSS 3-2 (A) 3.3 17:13:50 10° SW 17:18:56 76° NW 17:24:04 15° NE
NOSS 3-2 (C) 3.4 17:14:04 10° SSW 17:18:56 52° ESE 17:23:02 19° NE
CORIOLIS 4.4 17:14:53 10° S 17:20:13 74° WSW 17:25:35 10° NNW
Cosmos 783 Rocket 4.4 17:18:13 10° NNW 17:23:34 76° ENE 17:28:51 10° SSE
GEOS 3 Rocket 3.7 17:19:36 15° NE 17:24:07 90° NW 17:29:30 10° SW
MOS 1 Rocket 3.4 17:19:25 10° SSE 17:24:17 69° ENE 17:29:26 10° N
BREEZE M DEB (TANK) 3.0 17:22:54 10° SW 17:24:57 25° SSE 17:25:20 23° SE
Cosmos 1076 Rocket 4.0 17:21:51 10° N 17:25:50 35° ENE 17:29:48 10° SE
AQUARIUS 4.0 17:22:53 10° SSE 17:27:16 76° ENE 17:31:42 10° NNW
Cosmos 1933 3.4 17:24:39 10° S 17:28:21 48° E 17:30:45 20° NNE
SJ-12 3.7 17:26:24 10° SSE 17:30:10 85° WSW 17:33:59 10° NNW
Cosmos 2084 Rocket 3.4 17:26:05 10° NW 17:30:19 81° SW 17:34:32 10° SE
Cosmos 2227 Rocket 2.1 17:24:54 10° NNW 17:30:33 66° ENE 17:36:10 10° SE
Cosmos 1538 Rocket 4.4 17:26:33 10° NNW 17:31:30 39° ENE 17:36:28 10° SE
BlueWalker 3 4.3 17:28:53 10° W 17:31:46 22° SW 17:34:39 10° SSE
Cosmos 1606 Rocket 3.7 17:27:34 10° S 17:31:49 51° E 17:35:23 15° NNE
Meteor 1-28 Rocket 4.4 17:29:19 10° N 17:32:27 36° WNW 17:35:32 10° SW
Cosmos 2360 4.2 17:26:46 10° SSW 17:32:30 90° ESE 17:37:25 15° NNE
Cosmos 1900 4.3 17:27:55 10° NW 17:33:01 89° SW 17:37:59 10° SE
Cosmos 2369 Rocket 4.3 17:31:49 10° WNW 17:35:31 17° NNW 17:39:16 10° N
PSLV R/B 4.0 17:36:04 29° E 17:37:02 33° ENE 17:40:41 10° N
CZ-2D R/B 3.7 17:33:44 10° SE 17:37:45 46° ENE 17:41:45 10° N
COSMO-SKYMED 1 3.5 17:39:14 26° ESE 17:39:14 26° ESE 17:42:07 10° SSE
NOSS 2-2 (D) 3.5 17:35:48 10° WSW 17:38:53 43° NW 17:40:03 28° NNE
SL-19 R/B 4.4 17:36:27 10° SE 17:41:34 46° ENE 17:46:58 10° N
Resurs 1-3 3.9 17:37:44 10° SE 17:41:47 42° ENE 17:45:52 10° N
Cosmos 1503 Rocket 3.9 17:36:57 10° SSW 17:42:11 81° ESE 17:46:10 18° NNE
BREEZE-M DEB (TANK) 3.6 17:39:26 10° W 17:42:39 82° S 17:48:33 20° E
Cosmos 1697 Rocket 2.7 17:42:07 10° SSW 17:47:38 61° ESE 17:50:44 26° NE
Lacrosse 5 rocket 2.1 17:45:49 10° WNW 17:49:11 32° NNW 17:49:58 29° NNE
Okean 1-7 Rocket 3.8 17:44:48 10° NNW 17:49:11 69° W 17:53:30 10° S
Cosmos 1354 Rocket 3.9 17:45:14 10° SSW 17:50:27 69° ESE 17:53:34 25° NNE
BREEZE-M DEB (TANK) 3.8 17:48:31 10° W 17:51:54 71° N 17:57:03 26° E
Cosmos 1461 2.6 17:49:20 10° SW 17:53:14 86° SE 17:54:18 47° NE
NOSS 2-2 (E) 3.7 17:50:44 10° WSW 17:53:45 39° NW 17:54:25 34° N
Spot 4 Rocket 3.9 17:50:30 10° SSE 17:55:33 65° ENE 18:00:38 10° N
IRAS Rocket 4.2 17:51:25 10° SE 17:56:47 59° ENE 18:02:10 10° N
Cosmos 1726 Rocket 3.6 17:52:28 10° S 17:57:05 69° E 17:59:49 24° NNE
Cosmos 1655 Rocket 3.9 17:53:59 10° N 18:00:16 80° E 18:06:29 10° SSE
SKYMED 2 3.5 17:59:35 36° NNE 18:01:16 67° ESE 18:05:35 10° S
Cosmos 1777 Rocket 4.4 17:56:08 10° SW 18:01:20 64° WNW 18:05:19 18° NNE
Gbstr 26 Del rocket 3.2 17:58:49 10° SW 18:02:33 41° SSE 18:02:38 41° SE
NOAA 15 4.5 18:00:48 10° SSE 18:06:05 81° ENE 18:11:24 10° NNW
Meteor 2-10 4.0 18:02:10 10° N 18:07:29 64° ENE 18:12:56 10° SSE
CENTAUR R/B 3.7 18:02:29 10° W 18:08:16 36° NNW 18:12:28 21° NNE
YAOGAN 1 2.3 18:06:10 10° SSE 18:10:25 81° ENE 18:14:43 10° NNW
USA 281 4.4 18:17:16 24° NNE 18:17:16 24° NNE 18:21:35 10° NNW
Cosmos 2082 3.8 18:10:56 10° NNW 18:16:32 51° NE 18:17:04 50° ENE
Meteor 1-26 Rocket 4.3 18:13:25 10° SSE 18:18:03 47° ESE 18:18:03 47° ESE
Cosmos 1867 4.5 18:13:30 10° NW 18:18:44 48° WSW 18:23:56 10° SSE
USA 238 DEB 3.7 18:13:15 10° SSW 18:19:04 48° ESE 18:19:57 45° E
USA 238 3.7 18:13:22 10° SSW 18:19:11 48° ESE 18:20:01 45° E
Resurs 01 Rocket 4.0 18:25:00 11° N 18:25:00 11° N 18:25:15 10° N
Cosmos 2297 Rocket 4.3 18:18:20 10° NW 18:22:58 27° WSW 18:27:36 10° SSW
Cosmos 1953 Rocket 3.8 18:19:05 10° NNW 18:23:31 70° W 18:27:55 10° S
USA 215 3.4 18:22:49 43° ENE 18:24:40 57° NNE 18:31:04 10° WNW
Cosmos 372 Rocket 4.3 18:22:23 10° S 18:26:26 47° SE 18:26:26 47° SE
Aureole 1 Rocket 3.8 18:24:10 10° S 18:27:16 44° SSE 18:27:16 44° SSE
CZ-4C R/B 4.0 18:28:41 10° NW 18:35:24 45° WSW 18:43:29 10° S
USA 81 4.2 18:31:50 10° N 18:37:07 74° W 18:42:21 10° S
Cosmos 990 Rocket 4.3 18:33:02 10° SW 18:38:06 61° WNW 18:39:47 40° N
Cosmos 2219 3.1 18:34:51 10° NNW 18:40:38 86° ENE 18:41:34 64° SE
NOAA 6 4.0 18:35:42 10° SSE 18:40:49 79° WSW 18:45:57 10° NNW
Cosmos 1980 Rocket 2.1 18:44:29 10° SSW 18:49:48 78° S 18:49:48 78° S
Cosmos 2058 Rocket 4.2 18:49:04 10° SSW 18:51:55 38° SSW 18:51:55 38° SSW
Nadezhda 2 Rocket 4.4 18:48:23 10° N 18:54:33 82° W 19:00:38 10° S
Cosmos 1844 Rocket 4.0 18:49:49 10° NNW 18:52:38 27° N 18:52:38 27° N
Cosmos 2263 Rocket 3.0 18:56:12 10° NW 19:01:39 49° WSW 19:04:58 23° S
Cosmos 1553 Rocket 3.9 19:00:31 10° S 19:06:40 83° W 19:06:49 82° NW
NOSS 3-2 (C) 4.1 19:04:49 10° WSW 19:09:55 42° NNW 19:10:27 41° NNW
Cosmos 2227 Rocket 4.3 19:09:40 10° NW 19:14:06 24° WSW 19:18:31 10° SSW
Cosmos 1697 Rocket 4.2 19:27:02 10° WSW 19:31:58 30° NW 19:32:28 30° NW
CENTAUR R/B 4.2 19:54:48 10° NW 19:59:33 29° NNW 19:59:33 29° NNW
USA 215 4.3 20:10:10 40° WNW 20:10:10 40° WNW 20:14:09 10° WNW
